Regional Weather Roundup
Issued by NWS Upton, NY

Home | Current Version | Previous Version | Text Only | Print | Product List | Glossary On
Versions: 1 2 3 4 5 6 7 8 9 10 11 12 13 14 15 16 17 18 19 20 21 22 23 24 25 26 27 28 29 30 31 32 33 34 35 36 37 38 39 40 41 42 43 44 45 46 47 48 49 50
000
ASUS41 KOKX 281505
RWROKX

REGIONAL WEATHER ROUNDUP
NATIONAL WEATHER SERVICE NEW YORK NY
1100 AM EDT THU AUG 28 2014

NOTE: "FAIR" INDICATES FEW OR NO CLOUDS BELOW 12,000 FEET WITH NO
SIGNIFICANT WEATHER AND/OR OBSTRUCTIONS TO VISIBILITY.

NYZ071-072-176-178-NJZ106-104-281600-
NEW YORK CITY METRO AREA


CITY           SKY/WX    TMP DP  RH WIND       PRES   REMARKS
CENTRAL PARK   SUNNY     74  53  48 VRB5      29.94S
LAGUARDIA APRT MOSUNNY   74  56  53 NW13      29.90S
KENNEDY INTL   MOSUNNY   77  56  48 NW15G22   29.90F
NEWARK/LIBERTY MOSUNNY   76  55  48 NW12      29.91S
BRNX BOT. GARD   N/A     73  55  53 NW7       29.92F
TETERBORO      SUNNY     76  55  48 NW10      29.90S
$$

NYZ177-179-078>081-281600-
LONG ISLAND NEW YORK

CITY           SKY/WX    TMP DP  RH WIND       PRES   REMARKS
FARMINGDALE    SUNNY     74  58  57 N15       29.89S
ISLIP          MOSUNNY   75  59  57 N17       29.86S
SHIRLEY        MOSUNNY   77  61  57 N16G22    29.87F
WESTHAMPTON    SUNNY     77  60  55 N14G22    29.87F
MONTAUK POINT    N/A     76  63  64 N8        29.85S
$$

NYZ052-065-067-281600-
HUDSON VALLEY

CITY           SKY/WX    TMP DP  RH WIND       PRES   REMARKS
WHITE PLAINS   MOSUNNY   74  55  51 N15G21    29.90F
NEWBURGH       MOSUNNY   73  57  56 N14         N/A
MONTGOMERY     MOSUNNY   76  55  48 NW9       29.93S
POUGHKEEPSIE   CLOUDY    73  57  57 CALM      29.91S
ALBANY         PTSUNNY   71  58  63 NW12G17   29.92S
$$

NJZ001-105-106-008-010-013-015-019>022-104-281600-
NEW JERSEY

CITY           SKY/WX    TMP DP  RH WIND       PRES   REMARKS
NEWARK/LIBERTY MOSUNNY   76  55  48 NW12      29.91S
TETERBORO      SUNNY     76  55  48 NW10      29.90S
CALDWELL       SUNNY     73  55  53 NW9       29.93S
MORRISTOWN     SUNNY     73  57  56 N9G18     29.94S
SOMERVILLE     SUNNY     74  53  48 N9G16     29.93S
LINDEN         FAIR      79  58  49 NW10G16   29.94S
SUSSEX         SUNNY     72  55  55 NW12G21   29.96S
ANDOVER          N/A     70  54  56 N8G17     29.97S
TRENTON        SUNNY     72  54  53 NW13G23   29.94R
MILLVILLE      SUNNY     77  57  50 N14       29.94S
ATLANTIC CITY  SUNNY     77  58  51 NW12      29.92S
WRIGHTSTOWN    SUNNY     74  57  55 NW14      29.91S
TOMS RIVER     SUNNY     73  54  49 N10G16    29.92F
BELMAR         SUNNY     73  55  53 NW13      29.92R
$$

PAZ047>061-062-071-281600-
EASTERN PENNSYLVANIA

CITY           SKY/WX    TMP DP  RH WIND       PRES   REMARKS
PHILADELPHIA   MOSUNNY   75  54  47 NW14      29.96R
ALLENTOWN      SUNNY     72  53  51 NW9       29.98S
SCRANTON       PTSUNNY   65  52  62 NW6       30.03S
$$

CTZ002-004>006-009-010-012-RIZ004-006-007-MAZ004-011-015-281600-
SOUTHERN NEW ENGLAND
 IN CT

CITY           SKY/WX    TMP DP  RH WIND       PRES   REMARKS
BRADLEY INTL   MOSUNNY   76  57  51 NW13G20   29.86F
HARTFORD       MOSUNNY   77  56  48 N14G22    29.86F
DANBURY        MOSUNNY   73  58  59 N9G20     29.92S
WTRBRY/OXFORD  MOSUNNY   72  57  60 N17       29.92F
BRIDGEPORT     SUNNY     77  59  53 N13       29.87F
MERIDEN        SUNNY     76  57  51 N15G24    29.87F
NEW HAVEN      MOSUNNY   78  60  53 N14       29.87S
CHESTER        FAIR      73  57  56 N14G22    29.87S
GROTON         SUNNY     78  60  53 N18G24    29.83S
WILLIMANTIC    PTSUNNY   75  58  55 N13       29.86S

 IN RI

CITY           SKY/WX    TMP DP  RH WIND       PRES   REMARKS
PROVIDENCE     MOSUNNY   78  53  41 N17G26    29.83F
BLOCK ISLAND   PTSUNNY   77  59  53 N15G21    29.83F
WESTERLY       SUNNY     79  57  46 N14G23    29.83F

 IN MA

CITY           SKY/WX    TMP DP  RH WIND       PRES   REMARKS
BOSTON         MOSUNNY   78  54  43 N13       29.81F
WORCESTER      PTSUNNY   72  55  55 N8G18     29.87F
WESTFIELD      MOSUNNY   77  54  44 NW14G23   29.86F
PROVINCETOWN   SUNNY     72  64  78 N12G17    29.80F
NANTUCKET      SUNNY     75  63  66 N22G31    29.77S
$$

ANZ330-335-338-340-345-350-353-355-281600-
COASTAL MARINE OBSERVATIONS


STATION/POSITION TIME  SKY/WX   TEMP    WIND        PRES    VSBY  WAVE
                                AIR SEA DIR/SP/G                  HT/PER
                 (UTC)          (F)     (DEG/KT/KT) (MB)    (MI)  (FT/S)
NY HARB ENTRANCE NOT AVBL
4S FIRE IS       NOT AVBL
23SW MTP         1500                                 N/A           6/11
HUDSON CANYON    1500            72 73  340/ 17/ 23 1010.4          8/13
EXECUTION ROCKS  1500            72 74  310/ 10/ 16   N/A
WESTERN LI SOUND 1500            72     340/  8/ 14   N/A           1
CENTRAL LI SOUND 1400            72 73  340/ 14/ 16   N/A           1/ 2
EASTERN LI SOUND 1400            73 69  360/ 16/ 21   N/A
ROBBINS REEF     1500            72     320/  9/ 14   N/A
$$


>>>>>>>>>>>>>>>>>>>>>>>>>>>> KEY <<<<<<<<<<<<<<<<<<<<<<<<<<<
>                                                          <
>     SKY/WX - SKY CONDITION/PRESENT WEATHER               <
>     TMP    - TEMPERATURE IN FAHRENHEIT                   <
>     DP     - DEWPOINT IN FAHRENHEIT                      <
>     RH     - RELATIVE HUMIDITY IN PERCENT                <
>     WIND   - DIRECTION AND SPEED IN MPH                  <
>     PRES   - MEAN SEA LEVEL PRESSURE IN INCHES OF HG     <
>     WCI    - WIND CHILL INDEX                            <
>     VSB    - VISIBILITY IN MILES                         <
>     HX     - HEAT INDEX                                  <
>     TC     - TEMPERATURE IN CELSIUS                      <
>     VRB    - VARIABLE WIND DIRECTION                     <
>                                                          <
>>>>>>>>>>>>>>>>>>>>>>>>>>>> KEY <<<<<<<<<<<<<<<<<<<<<<<<<<<





USA.gov is the U.S. government's official web portal to all federal, state and local government web resources and services.